User: anonymous   Login
Location: Saddleback Butte
(34.6776°N, 117.8050°W)
Time: 19:26:36
(UTC-08:00)
Language:

Cosmos 1862 Rocket - Orbit

View from above orbital plane
View from above orbital plane
View from above satellite
View from above satellite

Ground track
Ground track

The orbit data is extracted from the following two-line orbital elements,

1 18153U 87055B   14331.84965369  .00000618  00000-0  73358-4 0  5110
2 18153 082.5018 259.6061 0020145 273.5272 143.5638 14.82769182480182
Epoch (UTC): 27 November 2014 20:23:30
Eccentricity: 0.0020145
inclination: 82.5018°
perigee height: 606 km
apogee height: 635 km
right ascension of ascending node: 259.6061°
argument of perigee: 273.5272°
revolutions per day: 14.82769182
mean anomaly at epoch: 143.5638°
orbit number at epoch: 48018

The dashed part of the orbit path shows where the satellite is in the earth's shadow,  

DLR